Tiempo cada hora Abay (Tyulkubasskiy rayon)

Hoy, 19 Octubre, Lunes

Tiempo Temperatura Precipitaciones Viento Presión Humedad
00:00 +12°C° 0 mm 4 mps 712 mmHg 27%
01:00 +11°C° 0 mm 4 mps 712 mmHg 28%
02:00 +11°C° 0 mm 4 mps 712 mmHg 29%
03:00 +11°C° 0 mm 4 mps 712 mmHg 30%
04:00 +11°C° 0 mm 4 mps 712 mmHg 30%
05:00 +10°C° 0 mm 4 mps 712 mmHg 32%
06:00 +11°C° 0 mm 4 mps 712 mmHg 30%
07:00 +12°C° 0 mm 4 mps 712 mmHg 28%
08:00 +13°C° 0 mm 4 mps 711 mmHg 26%
09:00 +16°C° 0 mm 5 mps 712 mmHg 22%
10:00 +20°C° 0 mm 5 mps 712 mmHg 18%
11:00 +22°C° 0 mm 5 mps 712 mmHg 13%
12:00 +23°C° 0 mm 6 mps 711 mmHg 14%
13:00 +23°C° 0 mm 6 mps 710 mmHg 14%
14:00 +23°C° 0 mm 7 mps 709 mmHg 14%
15:00 +22°C° 0 mm 6 mps 709 mmHg 15%
16:00 +21°C° 0 mm 6 mps 709 mmHg 16%
17:00 +20°C° 0 mm 5 mps 709 mmHg 17%
18:00 +17°C° 0 mm 5 mps 708 mmHg 18%
19:00 +15°C° 0 mm 4 mps 707 mmHg 20%
20:00 +13°C° 0 mm 4 mps 707 mmHg 22%
21:00 +13°C° 0 mm 4 mps 706 mmHg 22%
22:00 +12°C° 0 mm 3 mps 706 mmHg 23%
23:00 +12°C° 0 mm 3 mps 706 mmHg 24%

Mañana, 20 Octubre, Martes

Tiempo Temperatura Precipitaciones Viento Presión Humedad
00:00 +12°C° 0 mm 3 mps 706 mmHg 25%
01:00 +13°C° 0 mm 2 mps 705 mmHg 25%
02:00 +13°C° 0 mm 2 mps 705 mmHg 26%
03:00 +13°C° 0 mm 2 mps 705 mmHg 26%
04:00 +13°C° 0 mm 2 mps 705 mmHg 26%
05:00 +13°C° 0 mm 2 mps 705 mmHg 27%
06:00 +14°C° 0 mm 1 mps 705 mmHg 24%
07:00 +15°C° 0 mm 1 mps 705 mmHg 22%
08:00 +16°C° 0 mm 1 mps 706 mmHg 20%
09:00 +20°C° 0 mm 1 mps 706 mmHg 17%
10:00 +21°C° 0 mm 2 mps 706 mmHg 14%
11:00 +25°C° 0 mm 2 mps 706 mmHg 11%
12:00 +25°C° 0 mm 3 mps 706 mmHg 11%
13:00 +26°C° 0 mm 3 mps 706 mmHg 10%
14:00 +27°C° 0 mm 4 mps 706 mmHg 9%
15:00 +25°C° 0 mm 3 mps 706 mmHg 11%
16:00 +24°C° 0 mm 3 mps 706 mmHg 12%
17:00 +21°C° 0 mm 2 mps 705 mmHg 13%
18:00 +19°C° 0 mm 2 mps 705 mmHg 16%
19:00 +17°C° 0 mm 2 mps 705 mmHg 18%
20:00 +15°C° 0 mm 1 mps 705 mmHg 21%
21:00 +15°C° 0 mm 1 mps 705 mmHg 21%
22:00 +14°C° 0 mm 1 mps 705 mmHg 22%
23:00 +14°C° 0 mm 1 mps 705 mmHg 23%

Pasado mañana, 21 Octubre, Miércoles

Tiempo Temperatura Precipitaciones Viento Presión Humedad
00:00 +14°C° 0 mm 2 mps 705 mmHg 23%
01:00 +14°C° 0 mm 2 mps 705 mmHg 24%
02:00 +13°C° 0 mm 2 mps 705 mmHg 24%
03:00 +13°C° 0 mm 2 mps 705 mmHg 24%
04:00 +13°C° 0 mm 2 mps 706 mmHg 25%
05:00 +13°C° 0 mm 2 mps 706 mmHg 25%
06:00 +14°C° 0 mm 2 mps 707 mmHg 24%
07:00 +15°C° 0 mm 2 mps 707 mmHg 23%
08:00 +15°C° 0 mm 2 mps 707 mmHg 23%
09:00 +18°C° 0 mm 4 mps 708 mmHg 19%
10:00 +20°C° 0 mm 6 mps 708 mmHg 16%
11:00 +23°C° 0 mm 8 mps 709 mmHg 13%
12:00 +23°C° 0 mm 9 mps 708 mmHg 13%
13:00 +24°C° 0 mm 9 mps 708 mmHg 12%
14:00 +24°C° 0 mm 9 mps 708 mmHg 11%
15:00 +23°C° 0 mm 8 mps 708 mmHg 12%
16:00 +22°C° 0 mm 7 mps 708 mmHg 13%
17:00 +20°C° 0 mm 6 mps 707 mmHg 14%
18:00 +17°C° 0 mm 5 mps 707 mmHg 16%
19:00 +15°C° 0 mm 4 mps 707 mmHg 19%
20:00 +13°C° 0 mm 3 mps 707 mmHg 21%
21:00 +13°C° 0 mm 3 mps 707 mmHg 21%
22:00 +14°C° 0 mm 2 mps 707 mmHg 21%
23:00 +14°C° 0 mm 2 mps 707 mmHg 22%

22 Octubre, Jueves

Tiempo Temperatura Precipitaciones Viento Presión Humedad
00:00 +13°C° 0 mm 3 mps 707 mmHg 22%
01:00 +13°C° 0 mm 3 mps 707 mmHg 22%
02:00 +13°C° 0 mm 3 mps 707 mmHg 22%
03:00 +12°C° 0 mm 3 mps 707 mmHg 25%
04:00 +10°C° 0 mm 3 mps 707 mmHg 28%
05:00 +9°C° 0 mm 2 mps 708 mmHg 30%
06:00 +9°C° 0 mm 2 mps 708 mmHg 34%
07:00 +10°C° 0 mm 2 mps 709 mmHg 37%
08:00 +11°C° 0 mm 1 mps 709 mmHg 40%
09:00 +12°C° 0 mm 2 mps 709 mmHg 40%
10:00 +13°C° 0 mm 3 mps 710 mmHg 40%
11:00 +14°C° 0 mm 4 mps 710 mmHg 40%
12:00 +14°C° 0 mm 4 mps 709 mmHg 40%
13:00 +15°C° 0 mm 4 mps 709 mmHg 40%
14:00 +15°C° 0 mm 5 mps 709 mmHg 40%
15:00 +14°C° 0 mm 4 mps 708 mmHg 40%
16:00 +13°C° 0 mm 3 mps 708 mmHg 41%
17:00 +13°C° 0 mm 2 mps 708 mmHg 41%
18:00 +10°C° 0 mm 2 mps 708 mmHg 44%
19:00 +10°C° 0 mm 1 mps 708 mmHg 47%
20:00 +8°C° 0 mm 1 mps 708 mmHg 49%
21:00 +8°C° 0 mm 1 mps 707 mmHg 50%
22:00 +7°C° 0 mm 1 mps 707 mmHg 51%
23:00 +7°C° 0 mm 1 mps 707 mmHg 52%

23 Octubre, Viernes

Tiempo Temperatura Precipitaciones Viento Presión Humedad
00:00 +7°C° 0 mm 1 mps 707 mmHg 50%
01:00 +7°C° 0 mm 1 mps 707 mmHg 49%
02:00 +8°C° 0 mm 1 mps 707 mmHg 47%
03:00 +7°C° 0.2 mm 1 mps 708 mmHg 53%
04:00 +7°C° 0.2 mm 1 mps 708 mmHg 59%
05:00 +7°C° 0.2 mm 1 mps 708 mmHg 64%
06:00 +6°C° 0.2 mm 2 mps 708 mmHg 64%
07:00 +7°C° 0.2 mm 2 mps 709 mmHg 65%
08:00 +7°C° 0.2 mm 3 mps 709 mmHg 65%
09:00 +7°C° 0 mm 4 mps 710 mmHg 59%
10:00 +8°C° 0 mm 5 mps 710 mmHg 53%
11:00 +9°C° 0 mm 7 mps 710 mmHg 47%
12:00 +10°C° 0 mm 7 mps 710 mmHg 45%
13:00 +10°C° 0 mm 7 mps 710 mmHg 44%
14:00 +10°C° 0 mm 7 mps 710 mmHg 43%
15:00 +10°C° 0 mm 7 mps 711 mmHg 41%
16:00 +9°C° 0 mm 6 mps 711 mmHg 40%
17:00 +9°C° 0 mm 5 mps 711 mmHg 38%
18:00 +8°C° 0 mm 3 mps 711 mmHg 42%
19:00 +7°C° 0 mm 2 mps 711 mmHg 47%
20:00 +6°C° 0 mm 1 mps 711 mmHg 51%
21:00 +6°C° 0 mm 1 mps 712 mmHg 53%
22:00 +4°C° 0 mm 0 mps 712 mmHg 55%
23:00 +4°C° 0 mm 0 mps 712 mmHg 57%

24 Octubre, Sábado

Tiempo Temperatura Precipitaciones Viento Presión Humedad
00:00 +4°C° 0 mm 0 mps 712 mmHg 58%
01:00 +4°C° 0 mm 0 mps 712 mmHg 59%
02:00 +3°C° 0 mm 0 mps 712 mmHg 60%
03:00 +4°C° 0 mm 1 mps 712 mmHg 60%
04:00 +5°C° 0 mm 1 mps 712 mmHg 60%
05:00 +5°C° 0 mm 1 mps 712 mmHg 60%
06:00 +5°C° 0 mm 1 mps 712 mmHg 57%
07:00 +6°C° 0 mm 1 mps 713 mmHg 54%
08:00 +7°C° 0 mm 1 mps 713 mmHg 52%
09:00 +8°C° 0 mm 1 mps 713 mmHg 48%
10:00 +9°C° 0 mm 1 mps 713 mmHg 44%
11:00 +11°C° 0 mm 1 mps 713 mmHg 39%
12:00 +12°C° 0 mm 2 mps 713 mmHg 38%
13:00 +11°C° 0 mm 3 mps 713 mmHg 36%
14:00 +12°C° 0 mm 3 mps 713 mmHg 34%
15:00 +11°C° 0 mm 3 mps 713 mmHg 37%
16:00 +10°C° 0 mm 2 mps 713 mmHg 39%
17:00 +9°C° 0 mm 2 mps 713 mmHg 41%
18:00 +9°C° 0 mm 1 mps 713 mmHg 45%
19:00 +8°C° 0 mm 1 mps 714 mmHg 49%
20:00 +6°C° 0 mm 1 mps 714 mmHg 53%
21:00 +6°C° 0 mm 1 mps 714 mmHg 54%
22:00 +6°C° 0 mm 1 mps 714 mmHg 55%
23:00 +6°C° 0 mm 1 mps 714 mmHg 56%

25 Octubre, Domingo

Tiempo Temperatura Precipitaciones Viento Presión Humedad
00:00 +6°C° 0 mm 1 mps 714 mmHg 56%
01:00 +6°C° 0 mm 1 mps 713 mmHg 56%
02:00 +6°C° 0 mm 1 mps 713 mmHg 55%
03:00 +6°C° 0 mm 1 mps 713 mmHg 54%
04:00 +6°C° 0 mm 1 mps 713 mmHg 53%
05:00 +6°C° 0 mm 1 mps 713 mmHg 52%
06:00 +7°C° 0 mm 1 mps 713 mmHg 49%
07:00 +8°C° 0 mm 1 mps 714 mmHg 46%
08:00 +9°C° 0 mm 1 mps 714 mmHg 42%
09:00 +11°C° 0 mm 1 mps 714 mmHg 38%
10:00 +12°C° 0 mm 1 mps 714 mmHg 34%
11:00 +14°C° 0 mm 2 mps 713 mmHg 30%
12:00 +15°C° 0 mm 2 mps 713 mmHg 29%
13:00 +16°C° 0 mm 2 mps 713 mmHg 28%
14:00 +16°C° 0 mm 3 mps 713 mmHg 27%
15:00 +15°C° 0 mm 2 mps 713 mmHg 29%
16:00 +14°C° 0 mm 2 mps 712 mmHg 31%
17:00 +13°C° 0 mm 1 mps 712 mmHg 33%
18:00 +12°C° 0 mm 1 mps 712 mmHg 36%
19:00 +11°C° 0 mm 1 mps 712 mmHg 39%
20:00 +10°C° 0 mm 1 mps 711 mmHg 42%
21:00 +10°C° 0 mm 1 mps 711 mmHg 42%
22:00 +10°C° 0 mm 1 mps 711 mmHg 42%
23:00 +8°C° 0 mm 2 mps 711 mmHg 42%
Mostrar más

Necesitamos Su Consentimiento

Meteoprog y nuestros Proveedores de Servicios pueden almacenar y acceder a sus datos personales como cookies, identificadores de dispositivo u otras tecnologías similares de su dispositivo y procesar dichos datos para personalizar contenido y anuncios, además de ofrecer funciones de redes sociales y analizar el tráfico.

  • Almacenar y/o acceder a información en su dispositivo

    Se puede almacenar o acceder a cookies, identificadores de dispositivo u otra información de su dispositivo para los fines anteriormente indicados.

  • Anuncios y contenido personalizados, medición de anuncios y contenido, percepciones del público, y desarrollo de productos

    Los anuncios y el contenido pueden personalizarse en base a su perfil. Se pueden añadir más datos para personalizar mejor los anuncios y contenidos. Se puede medir el rendimiento de los anuncios y contenidos. Se puede obtener la percepción sobre el público que ha visto los anuncios y contenidos. Dichos datos pueden usarse para desarrollar o mejorar la experiencia del usuario, sistemas y software.

Al hacer clic en ‘Estoy De Acuerdo’ usted permitirá el uso de las cookies, identificadores de dispositivo, balizas web u otras tecnologías similares indicadas. Su configuración puede cambiarse desde el navegador de su dispositivo.

Para ciertos fines, los intereses legítimos pueden ser considerados por encima del consentimiento. Puede leer más sobre ello en nuestra Política de Privacidad y Cookies.